Location: Central Coast NSW, Australia
(33.2407°S, 151.4316°E)
Time: 01:36:48
(UTC+10:00)

Envisat - Pass Details

Date: 30 March 2019
Orbit: 764 x 766 km, 98.2° (Epoch: 25 April)

Event Time Altitude Azimuth Distance (km) Brightness Sun altitude
Rises 19:18:25 0° 151° (SSE) 3,264 6.0 -6.1°
Reaches altitude 10° 19:21:15 10° 136° (SE) 2,329 5.1 -6.7°
Maximum altitude 19:25:12 22° 85° (E) 1,634 4.1 -7.5°
Drops below altitude 10° 19:29:06 10° 35° (NE) 2,305 5.1 -8.3°
Sets 19:31:53 0° 19° (NNE) 3,222 6.0 -8.9°
